Regional Weather Roundup
Issued by NWS Green Bay, WI

Home | Current Version | Previous Version | Graphics & Text | Print | Product List | Glossary Off
Versions: 1 2 3 4 5 6 7 8 9 10 11 12 13 14 15 16 17 18 19 20 21 22 23 24 25 26 27 28 29 30 31 32 33 34 35 36 37 38 39 40 41 42 43 44 45 46 47 48 49 50

000
ASUS43 KGRB 192000
RWRGRB

NORTH-CENTRAL AND NORTHEAST WISCONSIN REGIONAL WEATHER ROUNDUP
NATIONAL WEATHER SERVICE GREEN BAY WI
200 PM CST THU JAN 19 2017

WIZ005-009-010>012-018-019-192100-
NORTH CENTRAL WISCONSIN

CITY           SKY/WX    TMP DP  RH WIND       PRES   REMARKS
IRONWOOD       SUNNY     49  37  63 S5        29.75F
MANITOWISH WTR NOT AVBL
ARBOR VITAE    NOT AVBL
EAGLE RIVER    NOT AVBL
LAND O LAKES   NOT AVBL
RHINELANDER    SUNNY     42  35  76 SW3       29.79F
PHILLIPS       SUNNY     44  34  69 S7        29.77F
ANTIGO         NOT AVBL
TOMAHAWK       NOT AVBL
MERRILL        CLOUDY    34  33  98 SW5         N/A  FOG
$$

WIZ013-073-192100-
NORTHEAST WISCONSIN

CITY           SKY/WX    TMP DP  RH WIND       PRES   REMARKS
IRON MOUNTAIN  SUNNY     39  31  72 SE6       29.80F
MARINETTE      NOT AVBL
$$

WIZ017-030-035>037-045-192100-
CENTRAL WISCONSIN

CITY           SKY/WX    TMP DP  RH WIND       PRES   REMARKS
MEDFORD        NOT AVBL
WAUSAU         CLOUDY    33  32  96 S7        29.83R FOG
MOSINEE        CLOUDY    34  34 100 SE6       29.85S FOG
MARSHFIELD     FOG       32  32 100 SE8       29.82S VSB 1/4
WISC RAPIDS    NOT AVBL
STEVENS POINT  NOT AVBL
WAUPACA        NOT AVBL
SHAWANO        NOT AVBL
CLINTONVILLE   FOG       32  32 100 S6        29.88S VSB 3/4
WAUTOMA        MOSUNNY   35  32  88 SE3       29.87F
$$

WIZ038-039-048-051-192100-
FOX VALLEY

CITY           SKY/WX    TMP DP  RH WIND       PRES   REMARKS
NWS GREEN BAY  FOG       34  33  96 S9        29.89R VSB 1
APPLETON       FOG       30  30 100 S8        29.88R VSB 1/4
OSHKOSH        CLOUDY    33  31  92 S7        29.88F FOG
FOND DU LAC    CLOUDY    35  31  85 S10       29.88F FOG
$$

WIZ022-050-052-192100-
EAST CENTRAL WISCONSIN

CITY           SKY/WX    TMP DP  RH WIND       PRES   REMARKS
EPHRAIM        NOT AVBL
WASHINGTON ISL NOT AVBL
STURGEON BAY   CLOUDY    34  32  92 S9        29.88S FOG
MANITOWOC      NOT AVBL
SHEBOYGAN      FOG       33  32  96 S10       29.90S VSB 1/4
$$

LMZ563-521-522-541>543-192100-
LAKESHORE

STATION/POSITION TIME  TEMP    WIND        PRES    VSBY  WAVE
                       AIR SEA DIR/SP/G                  HT/PER
                 (UTC) (F)     (DEG/KT/KT) (MB)    (MI)  (FT/S)
SHEBOYGAN LKSHOR 1900   33     190/ 15/ 16 1013.0F
KEWAUNEE LKSHORE 1930   34     190/ 11/ 14 1011.6F
NORTHPORT PIER   1940   34     160/  3/  7 1011.5F
SISTER BAY LKSHO 1905   35     200/ 13/ 15   N/A
MENOMINEE LKSHOR 1924          190/  7/ 12 1010.9
$$




USA.gov is the U.S. government's official web portal to all federal, state and local government web resources and services.